Terug naar catalogus

ASTRA 2E

ActiefCommunicatieGEO
NORAD 39285·PAYLOAD·🇱🇺 Luxembourg

Gelanceerd Sep 29, 2013 vanaf Baikonur Cosmodrome

Loading…

TLE

VersSource: CelesTrak SupGP

Epoch: Sep 13, 2026, 23:30 UTC

1 39285C 13056A   26256.97916667  .00000240  00000+0  00000+0 0  2564
2 39285   0.0881 308.8997 0002262 218.6959 206.3426  1.00271086    11

Volg ASTRA 2E in realtime met AllMySat

Download on the App Store